Waarnemingen

Advertentie
Mijn weer
La Coruna/Alvedro, Spanje (8002): temperatuur & dauwpunt: 12.11.2019 13:00:00 - 18.11.2019 13:00:00 (CET)La Coruna/Alvedro, Spanje (8002): windsnelheid & windstoten: 12.11.2019 13:00:00 - 18.11.2019 13:00:00 (CET)La Coruna/Alvedro, Spanje (8002): windrichting: 12.11.2019 13:00:00 - 18.11.2019 13:00:00 (CET)La Coruna/Alvedro, Spanje (8002): luchtdruk: 12.11.2019 13:00:00 - 18.11.2019 13:00:00 (CET)La Coruna/Alvedro, Spanje (8002): zicht: 12.11.2019 13:00:00 - 18.11.2019 13:00:00 (CET)
Datum & Tijd tt [°C] td [°C] ff [km/u] ff [kn] fx [km/u] fx [kn] dd ppp [hPa] vv [km]
18.11.2019 13:00:00 13,0 10,0 5 3 - - ZZO - 27
18.11.2019 12:00:00 10,0 10,0 8 4 - - ZZW - 12
18.11.2019 11:00:00 8,0 8,0 5 3 - - ZZW - 10
18.11.2019 10:00:00 8,0 8,0 4 2 - - - - 10
18.11.2019 09:00:00 7,0 7,0 4 2 - - - - 0,4
18.11.2019 08:00:00 7,0 7,0 8 4 - - Z - 9
18.11.2019 07:00:00 8,0 7,0 5 3 - - ZW - 10
18.11.2019 06:00:00 8,0 7,0 8 4 - - ZZW - 10
18.11.2019 05:00:00 8,0 8,0 4 2 - - ZO - 1,6
18.11.2019 04:00:00 8,0 7,0 0 0 - - N - 10
18.11.2019 03:00:00 8,0 8,0 4 2 - - - - 10
18.11.2019 02:00:00 9,0 8,0 2 1 - - - - 10
18.11.2019 01:00:00 9,0 8,0 2 1 - - - - 10
18.11.2019 00:00:00 10,0 7,0 4 2 - - - - 10
17.11.2019 23:00:00 10,0 8,0 5 3 - - NNW - 10
17.11.2019 22:00:00 10,0 7,0 11 6 - - NO - 10
17.11.2019 21:00:00 11,0 8,0 8 4 - - NO - 18
17.11.2019 20:00:00 11,0 8,0 13 7 - - NNO - 10
17.11.2019 19:00:00 11,0 10,0 22 12 - - NNW - 10
17.11.2019 18:00:00 11,0 9,0 22 12 - - NNW - 14
17.11.2019 17:00:00 11,0 9,0 15 8 - - WNW - 17
17.11.2019 16:00:00 12,0 9,0 21 11 - - NW - 30
17.11.2019 15:00:00 10,4 8,0 21 11 - - NW 1013,8 30
17.11.2019 14:00:00 12,8 6,0 22 12 - - NW - 23
17.11.2019 13:00:00 12,0 7,0 21 11 - - NNW - 10
17.11.2019 12:00:00 14,3 9,0 26 14 - - NNW - 10
17.11.2019 11:00:00 10,9 9,0 11 6 - - NNW - 10
17.11.2019 10:00:00 11,0 -20,8 8 4 - - WNW 1013,9 10
17.11.2019 09:00:00 10,7 8,0 16 9 - - NNW - 10
17.11.2019 08:00:00 10,4 10,0 11 6 - - WNW - 13
17.11.2019 07:00:00 10,9 10,0 11 6 - - NW - 3,5
17.11.2019 06:00:00 11,8 -19,9 13 7 - - - 1012,9 4,0
17.11.2019 05:00:00 11,7 -19,0 13 7 - - - 1012,6 5
17.11.2019 04:00:00 11,0 -18,4 28 15 - - ZW 1012,4 30
17.11.2019 03:00:00 11,2 -18,3 26 14 - - ZZW 1012,7 30
17.11.2019 02:00:00 11,2 -14,5 22 12 - - ZZW 1013,3 30
17.11.2019 01:00:00 13,6 -9,4 18 10 - - ZZW 1013,6 10
17.11.2019 00:00:00 10,7 -10,8 21 11 - - ZZW 1014,2 10
16.11.2019 23:00:00 9,8 8,0 4 2 - - - - 10
16.11.2019 22:00:00 10,0 8,0 13 7 - - ZW - 10
16.11.2019 21:00:00 9,4 7,0 15 8 - - ZZW - 10
16.11.2019 20:00:00 9,7 7,0 21 11 - - ZZW - 29
16.11.2019 19:00:00 9,6 -23,2 16 9 - - ZZW 1016,1 10
16.11.2019 18:00:00 9,3 -20,9 9 5 - - ZZW 1016,5 10
16.11.2019 17:00:00 10,5 7,0 9 5 - - ZW - 30
16.11.2019 16:00:00 10,7 6,0 8 4 - - WZW - 10
16.11.2019 15:00:00 10,9 7,0 11 6 - - W - 10
16.11.2019 14:00:00 9,4 7,0 5 3 - - W - 10
16.11.2019 13:00:00 10,8 5,0 13 7 - - W - 10
16.11.2019 12:00:00 9,9 5,0 11 6 - - W - 10
16.11.2019 11:00:00 9,2 6,0 15 8 - - W - 27
16.11.2019 10:00:00 6,8 6,0 8 4 - - ZZO - 19
16.11.2019 09:00:00 6,7 6,0 5 3 - - W - 10
16.11.2019 08:00:00 6,1 6,0 9 5 - - Z - 10
16.11.2019 07:00:00 6,0 6,0 8 4 - - Z - 10
16.11.2019 06:00:00 6,1 6,0 9 5 - - Z - 14
16.11.2019 05:00:00 6,3 6,0 9 5 - - ZZW - 30
16.11.2019 04:00:00 7,3 6,0 8 4 - - ZW - 17
16.11.2019 03:00:00 8,0 6,0 8 4 - - ONO - 30
16.11.2019 02:00:00 8,6 6,0 11 6 - - N - 10
16.11.2019 01:00:00 9,2 6,0 22 12 - - NNW - 22
16.11.2019 00:00:00 9,2 6,0 22 12 - - N - 10
15.11.2019 23:00:00 7,4 6,0 15 8 - - NNW - 10
15.11.2019 22:00:00 7,4 5,0 26 14 - - NNO - 19
15.11.2019 21:00:00 8,4 6,0 22 12 - - NNO - 11
15.11.2019 20:00:00 6,6 5,0 11 6 - - NO - 30
15.11.2019 19:00:00 6,9 5,0 13 7 - - N - 10
15.11.2019 18:00:00 7,0 5,7 9 5 - - NNO 1011,9 5
15.11.2019 17:00:00 9,8 5,6 16 9 - - N 1011,4 11
15.11.2019 16:00:00 10,0 3,5 28 15 - - N 1010,9 13
15.11.2019 15:00:00 6,9 6,1 8 4 - - - 1011,2 10
15.11.2019 14:00:00 7,1 4,8 29 16 - - N 1011,7 8
15.11.2019 13:00:00 10,4 4,3 34 18 - - NNW 1011,0 13
15.11.2019 12:00:00 9,5 3,3 34 18 - - NNW 1011,7 15
15.11.2019 11:00:00 6,9 2,2 31 17 - - NNO 1011,9 10
15.11.2019 10:00:00 9,1 2,0 24 13 - - N 1011,6 10
15.11.2019 09:00:00 8,6 2,3 29 16 - - N 1011,3 21
15.11.2019 08:00:00 9,1 1,5 29 16 - - N 1010,9 10
15.11.2019 07:00:00 9,0 2,5 34 18 - - N 1010,3 10
15.11.2019 06:00:00 9,6 1,5 29 16 - - N 1010,0 10
15.11.2019 05:00:00 10,0 1,1 35 19 - - N 1009,7 19
15.11.2019 04:00:00 9,3 1,4 26 14 - - N 1009,8 10
15.11.2019 03:00:00 9,3 2,4 29 16 - - N 1009,8 10
15.11.2019 02:00:00 8,5 2,5 35 19 - - NNW 1009,6 10
15.11.2019 01:00:00 9,6 3,3 22 12 - - N 1009,5 14
15.11.2019 00:00:00 9,9 3,0 24 13 - - N 1009,1 10
14.11.2019 23:00:00 10,3 1,3 34 18 - - N 1009,0 10
14.11.2019 22:00:00 10,2 2,3 28 15 - - N 1008,7 10
14.11.2019 21:00:00 10,3 2,7 35 19 78 42 N 1008,4 10
14.11.2019 20:00:00 10,6 3,1 34 18 - - NNW 1008,0 10
14.11.2019 19:00:00 11,2 2,7 46 25 - - N 1007,5 10
14.11.2019 18:00:00 11,2 4,2 44 24 80 43 NNW 1006,5 10
14.11.2019 17:00:00 11,2 5,3 44 24 81 44 NNW 1004,9 10
14.11.2019 16:00:00 7,3 7,3 41 22 - - N 1005,1 5
14.11.2019 15:00:00 11,5 5,9 48 26 89 48 N 1003,7 10
14.11.2019 14:00:00 9,7 7,1 48 26 104 56 NNW 1002,3 6
14.11.2019 13:00:00 11,8 6,3 57 31 - - NNW 1001,1 10
14.11.2019 12:00:00 11,2 6,6 48 26 83 45 NNW 1000,8 9
14.11.2019 11:00:00 8,1 5,2 37 20 - - NW 1000,9 3,9
14.11.2019 10:00:00 10,6 3,6 35 19 - - NNW 1001,5 10
14.11.2019 09:00:00 6,5 5,3 15 8 - - ZW 1002,1 7
14.11.2019 08:00:00 7,1 3,5 24 13 - - WZW 1003,6 10
14.11.2019 07:00:00 8,0 3,5 16 9 - - W 1005,4 28
14.11.2019 06:00:00 9,1 3,4 31 17 - - NW 1006,4 10
14.11.2019 05:00:00 7,5 3,4 18 10 - - WNW 1006,7 13
14.11.2019 04:00:00 7,8 2,5 37 20 - - NNW 1008,3 3,1
14.11.2019 03:00:00 9,0 4,4 13 7 - - NNW 1008,7 15
14.11.2019 02:00:00 9,8 4,0 24 13 - - NW 1009,4 17
14.11.2019 01:00:00 9,0 5,2 37 20 - - NNW 1009,9 19
14.11.2019 00:00:00 8,9 6,9 34 18 - - NNW 1010,2 7
13.11.2019 23:00:00 10,3 8,2 22 12 - - NW 1010,2 14
13.11.2019 22:00:00 10,5 10,5 24 13 - - NW 1010,5 6
13.11.2019 21:00:00 10,7 9,7 29 16 - - NW 1011,1 3,0
13.11.2019 20:00:00 11,8 8,6 21 11 - - WZW 1011,4 9
13.11.2019 19:00:00 11,7 8,7 22 12 - - WZW 1012,3 30
13.11.2019 18:00:00 11,7 8,7 21 11 - - W 1013,4 10
13.11.2019 17:00:00 12,7 8,2 13 7 - - WZW 1014,2 10
13.11.2019 16:00:00 12,9 8,6 15 8 - - W 1014,5 30
13.11.2019 15:00:00 13,1 8,2 13 7 - - NW 1014,9 10
13.11.2019 14:00:00 13,3 9,2 8 4 - - NW 1015,7 10
13.11.2019 13:00:00 12,1 8,9 9 5 - - NNW 1016,5 28
13.11.2019 12:00:00 12,5 9,3 5 3 - - NNW 1017,2 30
13.11.2019 11:00:00 11,5 9,9 4 2 - - - 1016,6 10
13.11.2019 10:00:00 11,9 9,8 0 0 - - N 1015,9 15
13.11.2019 09:00:00 11,4 10,0 5 3 - - N 1015,6 13
13.11.2019 08:00:00 11,3 10,0 5 3 - - N 1014,6 17
13.11.2019 07:00:00 11,4 10,5 9 5 - - N 1013,7 13
13.11.2019 06:00:00 11,7 10,8 9 5 - - NNO 1012,4 10
13.11.2019 05:00:00 12,1 11,3 8 4 - - N 1011,3 10
13.11.2019 04:00:00 12,2 11,7 11 6 - - N 1010,6 10
13.11.2019 03:00:00 12,5 12,5 9 5 - - N 1009,4 10
13.11.2019 02:00:00 12,7 12,7 13 7 - - N 1008,5 6
13.11.2019 01:00:00 12,8 12,8 11 6 - - N 1007,7 13
13.11.2019 00:00:00 13,5 13,5 15 8 - - N 1006,8 1,5
12.11.2019 23:00:00 15,1 15,1 22 12 - - NW 1006,5 5
12.11.2019 22:00:00 15,4 15,4 28 15 - - WNW 1006,2 5
12.11.2019 21:00:00 15,3 15,3 26 14 - - WNW 1006,7 2,1
12.11.2019 20:00:00 15,3 15,3 24 13 - - WNW 1007,3 3,5
12.11.2019 19:00:00 15,2 14,6 29 16 - - WNW 1007,7 2,0
12.11.2019 18:00:00 15,0 15,0 24 13 - - WNW 1007,8 5
12.11.2019 17:00:00 14,9 14,9 24 13 - - WNW 1008,5 1,8
12.11.2019 16:00:00 13,0 13,0 16 9 - - ZW 1009,4 1,8
12.11.2019 15:00:00 12,6 11,5 22 12 - - ZZW 1010,2 4,3
12.11.2019 14:00:00 12,3 10,5 28 15 - - ZZW 1012,0 6
12.11.2019 13:00:00 12,1 10,0 31 17 - - ZZW 1013,7 24

tt = temperatuur
td = dauwpunt
ff = windsnelheid
fx = windstoten
dd = windrichting
ppp = luchtdruk
vv = zicht

Weerstations in de omgeving